{"data":{"norad_id":57071,"epoch":"2026-05-25T00:55:04.177056Z","epoch_age_seconds":65063,"freshness":"FRESH","line1":"1 57071U 23088Z   26145.03824279 -.00000123  00000+0  50499-5 0  9992","line2":"2 57071  43.0054  25.2303 0001220 265.9662  94.1050 15.27573947162002","mean_motion":15.27573947,"eccentricity":0.000122,"inclination_deg":43.0054,"raan_deg":25.2303,"arg_perigee_deg":265.9662,"mean_anomaly_deg":94.105,"bstar":5.0499e-6,"rev_number":16200,"period_min":94.267122244917,"perigee_km":482.2301540441,"apogee_km":483.90428787401,"semimajor_km":6861.2042209591,"source":"CELESTRAK","updated_at":"2026-05-25T13:38:18.213150Z"}}